| time (UTC) | temp F | wind direction | speed MPH | gust MPH | rain 1hr in | rain 24hr in | rain mn in | humidity % | barometer mb |
| 20260509002545 | 65 | 0 | 0.0 | 2.0 | 0.00 | 0.00 | 0.00 | 53 | 1008.1 |
| 20260509002048 | 65 | 0 | 0.0 | 2.0 | 0.00 | 0.00 | 0.00 | 52 | 1008.2 |
| 20260509001551 | 65 | 320 | 0.0 | 3.0 | 0.00 | 0.00 | 0.00 | 52 | 1008.1 |
| 20260509001049 | 65 | 0 | 0.0 | 3.0 | 0.00 | 0.00 | 0.00 | 52 | 1008.2 |
| 20260509000553 | 65 | 284 | 0.0 | 2.0 | 0.00 | 0.00 | 0.00 | 52 | 1008.2 |
| 20260509000052 | 65 | 0 | 0.0 | 2.0 | 0.00 | 0.00 | 0.00 | 53 | 1008.3 |
| 20260508235548 | 65 | 0 | 0.0 | 2.0 | 0.00 | 0.00 | 0.00 | 54 | 1008.3 |
| 20260508235049 | 65 | 0 | 0.0 | 2.0 | 0.00 | 0.00 | 0.00 | 53 | 1008.2 |
| 20260508234553 | 65 | 0 | 0.0 | 2.0 | 0.00 | 0.00 | 0.00 | 55 | 1008.1 |
| 20260508234049 | 65 | 0 | 0.0 | 3.0 | 0.00 | 0.00 | 0.00 | 58 | 1008.1 |
| 20260508233549 | 66 | 267 | 0.0 | 4.0 | 0.00 | 0.00 | 0.00 | 54 | 1008.0 |
| 20260508233121 | 66 | 0 | 0.0 | 4.0 | 0.00 | 0.00 | 0.00 | 56 | 1008.1 |
| 20260508232548 | 66 | 0 | 1.0 | 4.0 | 0.00 | 0.00 | 0.00 | 53 | 1008.3 |
| 20260508232048 | 66 | 271 | 0.0 | 3.0 | 0.00 | 0.00 | 0.00 | 51 | 1008.3 |
| 20260508231600 | 66 | 261 | 0.0 | 3.0 | 0.00 | 0.00 | 0.00 | 51 | 1008.2 |
| 20260508231049 | 67 | 0 | 0.0 | 3.0 | 0.00 | 0.00 | 0.00 | 50 | 1008.2 |
| 20260508230549 | 67 | 0 | 0.0 | 4.0 | 0.00 | 0.00 | 0.00 | 49 | 1008.2 |
| 20260508230058 | 67 | 203 | 0.0 | 6.0 | 0.00 | 0.00 | 0.00 | 51 | 1008.0 |
| 20260508225545 | 67 | 0 | 0.0 | 6.0 | 0.00 | 0.00 | 0.00 | 50 | 1008.1 |
| 20260508225049 | 67 | 194 | 1.0 | 3.0 | 0.00 | 0.00 | 0.00 | 47 | 1007.9 |
| 20260508224610 | 67 | 333 | 0.0 | 3.0 | 0.00 | 0.00 | 0.00 | 48 | 1008.1 |
| 20260508224048 | 67 | 24 | 1.0 | 3.0 | 0.00 | 0.00 | 0.00 | 49 | 1008.1 |
| 20260508223549 | 68 | 256 | 0.0 | 6.0 | 0.00 | 0.00 | 0.00 | 48 | 1008.0 |
| 20260508223056 | 68 | 0 | 0.0 | 6.0 | 0.00 | 0.00 | 0.00 | 48 | 1007.9 |
| 20260508222548 | 68 | 0 | 0.0 | 5.0 | 0.00 | 0.00 | 0.00 | 47 | 1008.0 |
| 20260508222048 | 68 | 0 | 0.0 | 5.0 | 0.00 | 0.00 | 0.00 | 48 | 1007.9 |
| 20260508221553 | 68 | 0 | 0.0 | 5.0 | 0.00 | 0.00 | 0.00 | 46 | 1007.8 |
| 20260508221049 | 68 | 0 | 1.0 | 5.0 | 0.00 | 0.00 | 0.00 | 47 | 1007.9 |
| 20260508220549 | 68 | 283 | 1.0 | 5.0 | 0.00 | 0.00 | 0.00 | 46 | 1007.9 |
| 20260508220048 | 68 | 244 | 1.0 | 4.0 | 0.00 | 0.00 | 0.00 | 46 | 1008.0 |
| 20260508215548 | 68 | 0 | 1.0 | 4.0 | 0.00 | 0.00 | 0.00 | 47 | 1007.8 |
| 20260508215049 | 68 | 0 | 0.0 | 5.0 | 0.00 | 0.00 | 0.00 | 46 | 1007.8 |
| 20260508214553 | 68 | 203 | 2.0 | 5.0 | 0.00 | 0.00 | 0.00 | 44 | 1008.0 |
| 20260508214049 | 68 | 285 | 1.0 | 4.0 | 0.00 | 0.00 | 0.00 | 46 | 1008.0 |
| 20260508213548 | 68 | 279 | 1.0 | 4.0 | 0.00 | 0.00 | 0.00 | 45 | 1008.0 |
| 20260508213052 | 68 | 291 | 1.0 | 4.0 | 0.00 | 0.00 | 0.00 | 45 | 1008.1 |
| 20260508212548 | 68 | 209 | 2.0 | 4.0 | 0.00 | 0.00 | 0.00 | 44 | 1008.1 |
| 20260508212049 | 69 | 355 | 1.0 | 4.0 | 0.00 | 0.00 | 0.00 | 45 | 1008.1 |
| 20260508211549 | 69 | 309 | 1.0 | 8.0 | 0.00 | 0.00 | 0.00 | 45 | 1008.2 |
| 20260508211051 | 69 | 182 | 1.0 | 8.0 | 0.00 | 0.00 | 0.00 | 45 | 1008.1 |
| 20260508210548 | 69 | 246 | 1.0 | 6.0 | 0.00 | 0.00 | 0.00 | 49 | 1008.2 |
| 20260508210050 | 68 | 206 | 1.0 | 6.0 | 0.00 | 0.00 | 0.00 | 44 | 1008.4 |
| 20260508205546 | 68 | 0 | 0.0 | 5.0 | 0.00 | 0.00 | 0.00 | 45 | 1008.4 |
| 20260508205048 | 68 | 214 | 1.0 | 5.0 | 0.00 | 0.00 | 0.00 | 46 | 1008.7 |
| 20260508204552 | 68 | 22 | 0.0 | 5.0 | 0.00 | 0.00 | 0.00 | 45 | 1008.8 |
| 20260508204051 | 69 | 217 | 1.0 | 4.0 | 0.00 | 0.00 | 0.00 | 45 | 1008.9 |
| 20260508203548 | 69 | 232 | 1.0 | 8.0 | 0.00 | 0.00 | 0.00 | 45 | 1009.0 |
| 20260508203055 | 69 | 0 | 0.0 | 10.0 | 0.00 | 0.00 | 0.00 | 48 | 1009.0 |
| 20260508202549 | 69 | 227 | 1.0 | 10.0 | 0.00 | 0.00 | 0.00 | 43 | 1009.0 |
| 20260508202048 | 69 | 259 | 2.0 | 10.0 | 0.00 | 0.00 | 0.00 | 44 | 1009.1 |
| 20260508201551 | 69 | 217 | 0.0 | 3.0 | 0.00 | 0.00 | 0.00 | 48 | 1009.1 |
| 20260508201048 | 69 | 0 | 0.0 | 3.0 | 0.00 | 0.00 | 0.00 | 51 | 1009.2 |
| 20260508200549 | 69 | 0 | 1.0 | 3.0 | 0.00 | 0.00 | 0.00 | 50 | 1009.3 |
| 20260508200105 | 68 | 0 | 0.0 | 6.0 | 0.00 | 0.00 | 0.00 | 45 | 1009.1 |
| 20260508195548 | 69 | 273 | 0.0 | 6.0 | 0.00 | 0.00 | 0.00 | 44 | 1009.3 |
| 20260508195048 | 69 | 0 | 2.0 | 6.0 | 0.00 | 0.00 | 0.00 | 45 | 1009.3 |
| 20260508194555 | 69 | 250 | 1.0 | 5.0 | 0.00 | 0.00 | 0.00 | 45 | 1009.4 |
| 20260508194049 | 69 | 287 | 0.0 | 5.0 | 0.00 | 0.00 | 0.00 | 44 | 1009.4 |
| 20260508193545 | 69 | 301 | 1.0 | 4.0 | 0.00 | 0.00 | 0.00 | 44 | 1009.3 |
| 20260508193056 | 69 | 333 | 2.0 | 4.0 | 0.00 | 0.00 | 0.00 | 44 | 1009.5 |
| 20260508192548 | 70 | 259 | 0.0 | 3.0 | 0.00 | 0.00 | 0.00 | 42 | 1009.5 |
| 20260508192045 | 70 | 217 | 0.0 | 6.0 | 0.00 | 0.00 | 0.00 | 42 | 1009.6 |
| 20260508191554 | 71 | 338 | 1.0 | 9.0 | 0.00 | 0.00 | 0.00 | 41 | 1009.6 |
| 20260508191048 | 71 | 128 | 2.0 | 9.0 | 0.00 | 0.00 | 0.00 | 39 | 1009.6 |
| 20260508190552 | 71 | 254 | 2.0 | 6.0 | 0.00 | 0.00 | 0.00 | 41 | 1009.8 |
| 20260508190054 | 71 | 213 | 1.0 | 10.0 | 0.00 | 0.00 | 0.00 | 47 | 1009.9 |
| 20260508185549 | 71 | 0 | 2.0 | 10.0 | 0.00 | 0.00 | 0.00 | 43 | 1009.9 |
| 20260508185049 | 70 | 0 | 1.0 | 7.0 | 0.00 | 0.00 | 0.00 | 45 | 1010.0 |
| 20260508184555 | 70 | 244 | 1.0 | 10.0 | 0.00 | 0.00 | 0.00 | 43 | 1010.0 |
| 20260508184048 | 70 | 286 | 2.0 | 10.0 | 0.00 | 0.00 | 0.00 | 42 | 1010.2 |
| 20260508183548 | 70 | 213 | 2.0 | 8.0 | 0.00 | 0.00 | 0.00 | 42 | 1010.2 |
| 20260508183053 | 70 | 238 | 3.0 | 7.0 | 0.00 | 0.00 | 0.00 | 42 | 1010.2 |
| 20260508182547 | 70 | 312 | 2.0 | 7.0 | 0.00 | 0.00 | 0.00 | 43 | 1010.4 |
| 20260508182048 | 70 | 170 | 1.0 | 7.0 | 0.00 | 0.00 | 0.00 | 46 | 1010.4 |
| 20260508181557 | 70 | 297 | 1.0 | 9.0 | 0.00 | 0.00 | 0.00 | 46 | 1010.5 |
| 20260508181049 | 70 | 267 | 1.0 | 9.0 | 0.00 | 0.00 | 0.00 | 43 | 1010.6 |
| 20260508180547 | 69 | 208 | 2.0 | 8.0 | 0.00 | 0.00 | 0.00 | 44 | 1010.6 |
| 20260508180058 | 69 | 209 | 1.0 | 9.0 | 0.00 | 0.00 | 0.00 | 45 | 1010.7 |
| 20260508175549 | 69 | 265 | 2.0 | 9.0 | 0.00 | 0.00 | 0.00 | 43 | 1010.7 |
| 20260508175049 | 69 | 267 | 1.0 | 9.0 | 0.00 | 0.00 | 0.00 | 44 | 1010.7 |
| 20260508174611 | 68 | 213 | 1.0 | 9.0 | 0.00 | 0.00 | 0.00 | 48 | 1010.8 |
| 20260508174045 | 68 | 296 | 2.0 | 8.0 | 0.00 | 0.00 | 0.00 | 45 | 1010.9 |
| 20260508173550 | 68 | 229 | 2.0 | 4.0 | 0.00 | 0.00 | 0.00 | 46 | 1011.0 |
| 20260508173053 | 67 | 259 | 1.0 | 8.0 | 0.00 | 0.00 | 0.00 | 47 | 1011.1 |
| 20260508172548 | 67 | 350 | 1.0 | 10.0 | 0.00 | 0.00 | 0.00 | 46 | 1011.3 |
| 20260508172048 | 67 | 251 | 2.0 | 10.0 | 0.00 | 0.00 | 0.00 | 45 | 1011.4 |
| 20260508171554 | 68 | 206 | 3.0 | 11.0 | 0.00 | 0.00 | 0.00 | 43 | 1011.5 |
| 20260508171048 | 68 | 216 | 2.0 | 11.0 | 0.00 | 0.00 | 0.00 | 46 | 1011.5 |
| 20260508170548 | 69 | 209 | 2.0 | 7.0 | 0.00 | 0.00 | 0.00 | 48 | 1011.6 |
| 20260508170056 | 68 | 259 | 1.0 | 7.0 | 0.00 | 0.00 | 0.00 | 50 | 1011.9 |
| 20260508165548 | 68 | 301 | 2.0 | 7.0 | 0.00 | 0.00 | 0.00 | 48 | 1011.8 |
| 20260508165045 | 68 | 292 | 1.0 | 6.0 | 0.00 | 0.00 | 0.00 | 48 | 1012.0 |
| 20260508164554 | 68 | 222 | 1.0 | 6.0 | 0.00 | 0.00 | 0.00 | 50 | 1012.1 |
| 20260508164048 | 68 | 62 | 1.0 | 10.0 | 0.00 | 0.00 | 0.00 | 49 | 1012.2 |
| 20260508163544 | 67 | 345 | 2.0 | 10.0 | 0.00 | 0.00 | 0.00 | 52 | 1012.2 |
| 20260508163056 | 67 | 0 | 2.0 | 10.0 | 0.00 | 0.00 | 0.00 | 50 | 1012.4 |
| 20260508162548 | 67 | 0 | 1.0 | 9.0 | 0.00 | 0.00 | 0.00 | 51 | 1012.5 |
| 20260508162048 | 67 | 232 | 2.0 | 10.0 | 0.00 | 0.00 | 0.00 | 48 | 1012.5 |
| 20260508161551 | 67 | 333 | 3.0 | 10.0 | 0.00 | 0.00 | 0.00 | 49 | 1012.7 |
| 20260508161051 | 66 | 221 | 1.0 | 7.0 | 0.00 | 0.00 | 0.00 | 51 | 1012.5 |
| 20260508160549 | 66 | 232 | 2.0 | 9.0 | 0.00 | 0.00 | 0.00 | 50 | 1012.5 |
| 20260508160055 | 66 | 216 | 2.0 | 9.0 | 0.00 | 0.00 | 0.00 | 50 | 1012.6 |
| 20260508155549 | 65 | 208 | 2.0 | 8.0 | 0.00 | 0.00 | 0.00 | 50 | 1012.7 |
| 20260508155049 | 65 | 321 | 1.0 | 8.0 | 0.00 | 0.00 | 0.00 | 51 | 1012.8 |
| 20260508154558 | 65 | 337 | 2.0 | 8.0 | 0.00 | 0.00 | 0.00 | 48 | 1012.8 |
| 20260508154049 | 65 | 209 | 2.0 | 6.0 | 0.00 | 0.00 | 0.00 | 50 | 1012.8 |
| 20260508153549 | 64 | 221 | 2.0 | 12.0 | 0.00 | 0.00 | 0.00 | 50 | 1013.0 |
| 20260508153057 | 64 | 0 | 2.0 | 12.0 | 0.00 | 0.00 | 0.00 | 51 | 1013.2 |
| 20260508152548 | 64 | 208 | 2.0 | 9.0 | 0.00 | 0.00 | 0.00 | 51 | 1013.2 |
| 20260508152049 | 64 | 223 | 2.0 | 7.0 | 0.00 | 0.00 | 0.00 | 52 | 1013.3 |
| 20260508151605 | 63 | 265 | 2.0 | 7.0 | 0.00 | 0.00 | 0.00 | 53 | 1013.2 |
| 20260508151050 | 63 | 232 | 2.0 | 10.0 | 0.00 | 0.00 | 0.00 | 52 | 1013.3 |
| 20260508150550 | 63 | 284 | 2.0 | 11.0 | 0.00 | 0.00 | 0.00 | 52 | 1013.2 |
| 20260508145551 | 62 | 211 | 1.0 | 8.0 | 0.00 | 0.00 | 0.00 | 54 | 1013.5 |
| 20260508145051 | 62 | 0 | 2.0 | 8.0 | 0.00 | 0.00 | 0.00 | 54 | 1013.4 |
| 20260508144557 | 62 | 334 | 1.0 | 4.0 | 0.00 | 0.00 | 0.00 | 53 | 1013.5 |
| 20260508144049 | 61 | 274 | 0.0 | 4.0 | 0.00 | 0.00 | 0.00 | 55 | 1013.4 |
| 20260508143549 | 61 | 0 | 2.0 | 4.0 | 0.00 | 0.00 | 0.00 | 52 | 1013.4 |
| 20260508143100 | 61 | 346 | 0.0 | 7.0 | 0.00 | 0.00 | 0.00 | 55 | 1013.5 |
| 20260508142548 | 61 | 281 | 1.0 | 7.0 | 0.00 | 0.00 | 0.00 | 56 | 1013.6 |
| 20260508142049 | 60 | 217 | 1.0 | 7.0 | 0.00 | 0.00 | 0.00 | 53 | 1013.6 |
| 20260508141555 | 60 | 244 | 2.0 | 7.0 | 0.00 | 0.00 | 0.00 | 53 | 1013.6 |
| 20260508141048 | 60 | 194 | 1.0 | 7.0 | 0.00 | 0.00 | 0.00 | 55 | 1013.7 |
| 20260508140548 | 59 | 266 | 1.0 | 7.0 | 0.00 | 0.00 | 0.00 | 55 | 1013.9 |
| 20260508140112 | 59 | 205 | 1.0 | 7.0 | 0.00 | 0.00 | 0.00 | 56 | 1013.8 |
| 20260508135550 | 58 | 233 | 1.0 | 7.0 | 0.00 | 0.00 | 0.00 | 57 | 1013.8 |
| 20260508135050 | 58 | 210 | 2.0 | 7.0 | 0.00 | 0.00 | 0.00 | 57 | 1013.8 |
| 20260508134557 | 57 | 0 | 1.0 | 4.0 | 0.00 | 0.00 | 0.00 | 58 | 1013.9 |
| 20260508134049 | 57 | 211 | 1.0 | 4.0 | 0.00 | 0.00 | 0.00 | 60 | 1013.8 |
| 20260508133552 | 56 | 250 | 0.0 | 5.0 | 0.00 | 0.00 | 0.00 | 61 | 1013.9 |
| 20260508133058 | 56 | 251 | 1.0 | 5.0 | 0.00 | 0.00 | 0.00 | 61 | 1013.8 |
| 20260508132548 | 55 | 238 | 0.0 | 5.0 | 0.00 | 0.00 | 0.00 | 64 | 1013.7 |
| 20260508132049 | 54 | 0 | 0.0 | 5.0 | 0.00 | 0.00 | 0.00 | 67 | 1013.8 |
| 20260508131557 | 54 | 207 | 0.0 | 4.0 | 0.00 | 0.00 | 0.00 | 66 | 1013.8 |
| 20260508131049 | 53 | 0 | 1.0 | 4.0 | 0.00 | 0.00 | 0.00 | 67 | 1013.8 |
| 20260508130548 | 53 | 267 | 0.0 | 3.0 | 0.00 | 0.00 | 0.00 | 69 | 1013.7 |
| 20260508130105 | 52 | 222 | 0.0 | 3.0 | 0.00 | 0.00 | 0.00 | 70 | 1013.9 |
| 20260508125549 | 51 | 0 | 0.0 | 3.0 | 0.00 | 0.00 | 0.00 | 71 | 1013.8 |
| 20260508125048 | 51 | 0 | 0.0 | 3.0 | 0.00 | 0.00 | 0.00 | 71 | 1013.8 |
| 20260508124555 | 50 | 0 | 0.0 | 2.0 | 0.00 | 0.00 | 0.00 | 73 | 1013.7 |
| 20260508124048 | 49 | 0 | 0.0 | 2.0 | 0.00 | 0.00 | 0.00 | 74 | 1013.7 |
| 20260508123550 | 49 | 296 | 0.0 | 2.0 | 0.00 | 0.00 | 0.00 | 75 | 1013.7 |
| 20260508123059 | 48 | 0 | 0.0 | 2.0 | 0.00 | 0.00 | 0.00 | 75 | 1013.7 |
| 20260508122549 | 48 | 0 | 0.0 | 2.0 | 0.00 | 0.00 | 0.00 | 76 | 1013.7 |
| 20260508122049 | 48 | 0 | 0.0 | 1.0 | 0.00 | 0.00 | 0.00 | 77 | 1013.7 |
| 20260508121557 | 48 | 0 | 0.0 | 1.0 | 0.00 | 0.00 | 0.00 | 76 | 1013.6 |
| 20260508121049 | 47 | 0 | 0.0 | 1.0 | 0.00 | 0.00 | 0.00 | 76 | 1013.8 |
| 20260508120549 | 47 | 0 | 0.0 | 1.0 | 0.00 | 0.00 | 0.00 | 77 | 1013.7 |
| 20260508120100 | 47 | 0 | 0.0 | 2.0 | 0.00 | 0.00 | 0.00 | 78 | 1013.7 |
| 20260508115548 | 47 | 0 | 0.0 | 2.0 | 0.00 | 0.00 | 0.00 | 78 | 1013.8 |
| 20260508115048 | 47 | 0 | 0.0 | 2.0 | 0.00 | 0.00 | 0.00 | 80 | 1013.6 |
| 20260508114556 | 47 | 0 | 0.0 | 1.0 | 0.00 | 0.00 | 0.00 | 80 | 1013.7 |
| 20260508114049 | 46 | 0 | 0.0 | 1.0 | 0.00 | 0.00 | 0.00 | 79 | 1013.6 |
| 20260508113549 | 46 | 0 | 0.0 | 1.0 | 0.00 | 0.00 | 0.00 | 79 | 1013.5 |
| 20260508113107 | 46 | 0 | 0.0 | 1.0 | 0.00 | 0.00 | 0.00 | 80 | 1013.5 |
| 20260508112548 | 46 | 0 | 0.0 | 0.0 | 0.00 | 0.00 | 0.00 | 80 | 1013.4 |
| 20260508112048 | 46 | 0 | 0.0 | 1.0 | 0.00 | 0.00 | 0.00 | 81 | 1013.5 |
| 20260508111611 | 46 | 0 | 0.0 | 1.0 | 0.00 | 0.00 | 0.00 | 82 | 1013.3 |
| 20260508111049 | 46 | 0 | 0.0 | 1.0 | 0.00 | 0.00 | 0.00 | 82 | 1013.2 |
| 20260508110550 | 45 | 0 | 0.0 | 1.0 | 0.00 | 0.00 | 0.00 | 82 | 1013.2 |
| 20260508110057 | 45 | 0 | 0.0 | 0.0 | 0.00 | 0.00 | 0.00 | 84 | 1013.1 |
| 20260508105549 | 45 | 0 | 0.0 | 0.0 | 0.00 | 0.00 | 0.00 | 85 | 1013.2 |
| 20260508105049 | 45 | 0 | 0.0 | 0.0 | 0.00 | 0.00 | 0.00 | 85 | 1013.2 |
| 20260508104600 | 45 | 0 | 0.0 | 0.0 | 0.00 | 0.00 | 0.00 | 84 | 1013.2 |
| 20260508104049 | 45 | 0 | 0.0 | 0.0 | 0.00 | 0.00 | 0.00 | 85 | 1013.3 |
| 20260508103549 | 45 | 0 | 0.0 | 0.0 | 0.00 | 0.00 | 0.00 | 86 | 1013.2 |
| 20260508103056 | 44 | 0 | 0.0 | 0.0 | 0.00 | 0.00 | 0.00 | 86 | 1013.3 |
| 20260508102549 | 44 | 0 | 0.0 | 0.0 | 0.00 | 0.00 | 0.00 | 86 | 1013.1 |
| 20260508102051 | 44 | 0 | 0.0 | 0.0 | 0.00 | 0.00 | 0.00 | 87 | 1013.1 |
| 20260508101554 | 44 | 0 | 0.0 | 0.0 | 0.00 | 0.00 | 0.00 | 87 | 1013.2 |
| 20260508101049 | 44 | 0 | 0.0 | 0.0 | 0.00 | 0.00 | 0.00 | 88 | 1013.2 |
| 20260508100552 | 44 | 0 | 0.0 | 0.0 | 0.00 | 0.00 | 0.00 | 88 | 1013.1 |
| 20260508100055 | 44 | 0 | 0.0 | 0.0 | 0.00 | 0.00 | 0.00 | 87 | 1013.0 |
| 20260508095549 | 44 | 0 | 0.0 | 0.0 | 0.00 | 0.00 | 0.00 | 87 | 1013.1 |
| 20260508095049 | 43 | 0 | 0.0 | 0.0 | 0.00 | 0.00 | 0.00 | 87 | 1013.2 |
| 20260508094551 | 43 | 0 | 0.0 | 0.0 | 0.00 | 0.00 | 0.00 | 87 | 1013.1 |
| 20260508094051 | 43 | 0 | 0.0 | 0.0 | 0.00 | 0.00 | 0.00 | 87 | 1013.1 |
| 20260508093552 | 43 | 0 | 0.0 | 0.0 | 0.00 | 0.00 | 0.00 | 87 | 1013.3 |
| 20260508093057 | 43 | 0 | 0.0 | 0.0 | 0.00 | 0.00 | 0.00 | 87 | 1013.2 |
| 20260508092548 | 42 | 0 | 0.0 | 0.0 | 0.00 | 0.00 | 0.00 | 87 | 1013.1 |
| 20260508092052 | 42 | 0 | 0.0 | 0.0 | 0.00 | 0.00 | 0.00 | 87 | 1013.1 |
| 20260508091605 | 42 | 0 | 0.0 | 0.0 | 0.00 | 0.00 | 0.00 | 87 | 1013.1 |
| 20260508091049 | 42 | 0 | 0.0 | 0.0 | 0.00 | 0.00 | 0.00 | 86 | 1013.2 |
| 20260508090549 | 42 | 0 | 0.0 | 0.0 | 0.00 | 0.00 | 0.00 | 87 | 1013.1 |
| 20260508090104 | 42 | 0 | 0.0 | 0.0 | 0.00 | 0.00 | 0.00 | 86 | 1013.2 |
| 20260508085548 | 42 | 0 | 0.0 | 0.0 | 0.00 | 0.00 | 0.00 | 86 | 1013.1 |
| 20260508085048 | 42 | 0 | 0.0 | 0.0 | 0.00 | 0.00 | 0.00 | 86 | 1013.1 |
| 20260508084554 | 42 | 0 | 0.0 | 0.0 | 0.00 | 0.00 | 0.00 | 86 | 1013.0 |
| 20260508084050 | 42 | 0 | 0.0 | 0.0 | 0.00 | 0.00 | 0.00 | 86 | 1013.1 |
| 20260508083550 | 42 | 0 | 0.0 | 0.0 | 0.00 | 0.00 | 0.00 | 86 | 1013.0 |
| 20260508083053 | 42 | 0 | 0.0 | 0.0 | 0.00 | 0.00 | 0.00 | 85 | 1013.0 |
| 20260508082549 | 42 | 0 | 0.0 | 0.0 | 0.00 | 0.00 | 0.00 | 85 | 1013.1 |
| 20260508082049 | 42 | 0 | 0.0 | 0.0 | 0.00 | 0.00 | 0.00 | 85 | 1013.1 |
| 20260508081606 | 42 | 0 | 0.0 | 0.0 | 0.00 | 0.00 | 0.00 | 85 | 1012.9 |
| 20260508081049 | 42 | 0 | 0.0 | 0.0 | 0.00 | 0.00 | 0.00 | 84 | 1013.0 |
| 20260508080549 | 42 | 0 | 0.0 | 0.0 | 0.00 | 0.00 | 0.00 | 85 | 1012.9 |
| 20260508080056 | 42 | 0 | 0.0 | 0.0 | 0.00 | 0.00 | 0.00 | 84 | 1013.0 |
| 20260508075549 | 42 | 0 | 0.0 | 0.0 | 0.00 | 0.00 | 0.00 | 84 | 1012.9 |
| 20260508075048 | 42 | 0 | 0.0 | 0.0 | 0.00 | 0.00 | 0.00 | 84 | 1013.1 |
| 20260508074556 | 43 | 0 | 0.0 | 0.0 | 0.00 | 0.00 | 0.00 | 84 | 1013.1 |
| 20260508074051 | 43 | 0 | 0.0 | 0.0 | 0.00 | 0.00 | 0.00 | 84 | 1012.9 |
| 20260508073551 | 43 | 0 | 0.0 | 0.0 | 0.00 | 0.00 | 0.00 | 84 | 1012.8 |
| 20260508073106 | 43 | 0 | 0.0 | 0.0 | 0.00 | 0.00 | 0.00 | 84 | 1012.9 |
| 20260508072549 | 43 | 0 | 0.0 | 0.0 | 0.00 | 0.00 | 0.00 | 84 | 1013.1 |
| 20260508072048 | 43 | 0 | 0.0 | 0.0 | 0.00 | 0.00 | 0.00 | 84 | 1013.0 |
| 20260508071624 | 43 | 0 | 0.0 | 0.0 | 0.00 | 0.00 | 0.00 | 84 | 1013.1 |
| 20260508071049 | 43 | 0 | 0.0 | 0.0 | 0.00 | 0.00 | 0.00 | 84 | 1013.0 |
| 20260508070549 | 43 | 0 | 0.0 | 0.0 | 0.00 | 0.00 | 0.00 | 84 | 1013.0 |
| 20260508065551 | 43 | 0 | 0.0 | 0.0 | 0.00 | 0.00 | 0.00 | 84 | 1013.1 |
| 20260508065049 | 43 | 0 | 0.0 | 0.0 | 0.00 | 0.00 | 0.00 | 84 | 1013.1 |
| 20260508064559 | 43 | 0 | 0.0 | 0.0 | 0.00 | 0.00 | 0.00 | 84 | 1013.3 |
| 20260508064049 | 43 | 0 | 0.0 | 0.0 | 0.00 | 0.00 | 0.00 | 84 | 1013.4 |
| 20260508063549 | 43 | 0 | 0.0 | 0.0 | 0.00 | 0.00 | 0.00 | 84 | 1013.5 |
| 20260508063056 | 43 | 0 | 0.0 | 0.0 | 0.00 | 0.00 | 0.00 | 84 | 1013.6 |
| 20260508062548 | 43 | 0 | 0.0 | 0.0 | 0.00 | 0.00 | 0.00 | 84 | 1013.6 |
| 20260508062049 | 43 | 0 | 0.0 | 0.0 | 0.00 | 0.00 | 0.00 | 84 | 1013.6 |
| 20260508061556 | 43 | 0 | 0.0 | 0.0 | 0.00 | 0.00 | 0.00 | 84 | 1013.6 |
| 20260508061049 | 43 | 0 | 0.0 | 0.0 | 0.00 | 0.00 | 0.00 | 83 | 1013.8 |
| 20260508060548 | 43 | 0 | 0.0 | 0.0 | 0.00 | 0.00 | 0.00 | 83 | 1013.7 |
| 20260508060055 | 43 | 0 | 0.0 | 0.0 | 0.00 | 0.00 | 0.00 | 83 | 1013.6 |
| 20260508055551 | 43 | 0 | 0.0 | 0.0 | 0.00 | 0.00 | 0.00 | 83 | 1013.5 |
| 20260508055049 | 43 | 0 | 0.0 | 0.0 | 0.00 | 0.00 | 0.00 | 82 | 1013.7 |
| 20260508054608 | 43 | 0 | 0.0 | 0.0 | 0.00 | 0.00 | 0.00 | 82 | 1013.7 |
| 20260508054051 | 43 | 0 | 0.0 | 0.0 | 0.00 | 0.00 | 0.00 | 81 | 1013.6 |
| 20260508053549 | 44 | 0 | 0.0 | 0.0 | 0.00 | 0.00 | 0.00 | 81 | 1013.7 |
| 20260508053053 | 44 | 0 | 0.0 | 0.0 | 0.00 | 0.00 | 0.00 | 81 | 1013.7 |
| 20260508052549 | 44 | 0 | 0.0 | 0.0 | 0.00 | 0.00 | 0.00 | 81 | 1013.7 |
| 20260508052048 | 44 | 0 | 0.0 | 0.0 | 0.00 | 0.00 | 0.00 | 80 | 1013.8 |
| 20260508051556 | 44 | 0 | 0.0 | 0.0 | 0.00 | 0.00 | 0.00 | 80 | 1013.6 |
| 20260508051049 | 44 | 0 | 0.0 | 0.0 | 0.00 | 0.00 | 0.00 | 80 | 1013.6 |
| 20260508050549 | 44 | 0 | 0.0 | 0.0 | 0.00 | 0.00 | 0.00 | 80 | 1013.5 |
| 20260508050057 | 44 | 0 | 0.0 | 0.0 | 0.00 | 0.00 | 0.00 | 80 | 1013.5 |
| 20260508045548 | 44 | 0 | 0.0 | 0.0 | 0.00 | 0.00 | 0.00 | 80 | 1013.5 |
| 20260508045048 | 44 | 0 | 0.0 | 0.0 | 0.00 | 0.00 | 0.00 | 80 | 1013.5 |
| 20260508044558 | 44 | 0 | 0.0 | 0.0 | 0.00 | 0.00 | 0.00 | 80 | 1013.7 |
| 20260508044050 | 45 | 0 | 0.0 | 0.0 | 0.00 | 0.00 | 0.00 | 80 | 1013.6 |
| 20260508043549 | 45 | 0 | 0.0 | 0.0 | 0.00 | 0.00 | 0.00 | 80 | 1013.4 |
| 20260508043053 | 45 | 0 | 0.0 | 0.0 | 0.00 | 0.00 | 0.00 | 79 | 1013.5 |
| 20260508042549 | 45 | 0 | 0.0 | 0.0 | 0.00 | 0.00 | 0.00 | 79 | 1013.5 |
| 20260508042049 | 45 | 0 | 0.0 | 0.0 | 0.00 | 0.00 | 0.00 | 80 | 1013.5 |
| 20260508041554 | 45 | 0 | 0.0 | 0.0 | 0.00 | 0.00 | 0.00 | 79 | 1013.5 |
| 20260508041049 | 45 | 0 | 0.0 | 0.0 | 0.00 | 0.00 | 0.00 | 79 | 1013.5 |
| 20260508040549 | 45 | 0 | 0.0 | 0.0 | 0.00 | 0.00 | 0.00 | 79 | 1013.3 |
| 20260508040059 | 45 | 0 | 0.0 | 0.0 | 0.00 | 0.00 | 0.00 | 79 | 1013.3 |
| 20260508035546 | 45 | 0 | 0.0 | 0.0 | 0.00 | 0.00 | 0.00 | 79 | 1013.4 |
| 20260508035049 | 45 | 0 | 0.0 | 0.0 | 0.00 | 0.00 | 0.00 | 79 | 1013.4 |
| 20260508034551 | 45 | 0 | 0.0 | 0.0 | 0.00 | 0.00 | 0.00 | 78 | 1013.3 |
| 20260508034049 | 45 | 0 | 0.0 | 0.0 | 0.00 | 0.00 | 0.00 | 78 | 1013.4 |
| 20260508033548 | 45 | 0 | 0.0 | 0.0 | 0.00 | 0.00 | 0.00 | 78 | 1013.5 |
| 20260508033111 | 45 | 0 | 0.0 | 0.0 | 0.00 | 0.00 | 0.00 | 77 | 1013.5 |
| 20260508032549 | 46 | 0 | 0.0 | 0.0 | 0.00 | 0.00 | 0.00 | 77 | 1013.5 |
| 20260508032051 | 46 | 0 | 0.0 | 0.0 | 0.00 | 0.00 | 0.00 | 76 | 1013.6 |
| 20260508031552 | 46 | 0 | 0.0 | 0.0 | 0.00 | 0.00 | 0.00 | 76 | 1013.4 |
| 20260508031051 | 46 | 0 | 0.0 | 0.0 | 0.00 | 0.00 | 0.00 | 76 | 1013.4 |
| 20260508030549 | 46 | 0 | 0.0 | 0.0 | 0.00 | 0.00 | 0.00 | 76 | 1013.4 |
| 20260508030106 | 46 | 0 | 0.0 | 0.0 | 0.00 | 0.00 | 0.00 | 75 | 1013.4 |
| 20260508025548 | 46 | 0 | 0.0 | 0.0 | 0.00 | 0.00 | 0.00 | 74 | 1013.5 |
| 20260508025049 | 47 | 0 | 0.0 | 0.0 | 0.00 | 0.00 | 0.00 | 75 | 1013.5 |
| 20260508024618 | 47 | 0 | 0.0 | 0.0 | 0.00 | 0.00 | 0.00 | 75 | 1013.6 |
| 20260508024049 | 47 | 0 | 0.0 | 0.0 | 0.00 | 0.00 | 0.00 | 74 | 1013.5 |
| 20260508023549 | 47 | 0 | 0.0 | 0.0 | 0.00 | 0.00 | 0.00 | 75 | 1013.4 |
| 20260508023054 | 47 | 0 | 0.0 | 0.0 | 0.00 | 0.00 | 0.00 | 73 | 1013.3 |
| 20260508022549 | 47 | 0 | 0.0 | 0.0 | 0.00 | 0.00 | 0.00 | 73 | 1013.3 |
| 20260508022049 | 48 | 0 | 0.0 | 0.0 | 0.00 | 0.00 | 0.00 | 73 | 1013.4 |
| 20260508021555 | 48 | 0 | 0.0 | 0.0 | 0.00 | 0.00 | 0.00 | 72 | 1013.4 |
| 20260508021050 | 48 | 0 | 0.0 | 0.0 | 0.00 | 0.00 | 0.00 | 71 | 1013.3 |
| 20260508020548 | 48 | 0 | 0.0 | 0.0 | 0.00 | 0.00 | 0.00 | 71 | 1013.2 |
| 20260508020106 | 49 | 0 | 0.0 | 0.0 | 0.00 | 0.00 | 0.00 | 70 | 1013.2 |
| 20260508015548 | 49 | 0 | 0.0 | 1.0 | 0.00 | 0.00 | 0.00 | 69 | 1013.4 |
| 20260508015049 | 49 | 0 | 0.0 | 1.0 | 0.00 | 0.00 | 0.00 | 68 | 1013.2 |
| 20260508014600 | 50 | 0 | 0.0 | 1.0 | 0.00 | 0.00 | 0.00 | 68 | 1013.3 |
| 20260508014049 | 50 | 0 | 0.0 | 0.0 | 0.00 | 0.00 | 0.00 | 66 | 1013.4 |
| 20260508013549 | 50 | 0 | 0.0 | 0.0 | 0.00 | 0.00 | 0.00 | 65 | 1013.3 |
| 20260508013105 | 51 | 0 | 0.0 | 0.0 | 0.00 | 0.00 | 0.00 | 64 | 1013.3 |
| 20260508012549 | 51 | 0 | 0.0 | 0.0 | 0.00 | 0.00 | 0.00 | 64 | 1013.1 |
| 20260508012049 | 52 | 0 | 0.0 | 0.0 | 0.00 | 0.00 | 0.00 | 63 | 1013.2 |
| 20260508011556 | 52 | 0 | 0.0 | 0.0 | 0.00 | 0.00 | 0.00 | 62 | 1013.2 |
| 20260508011053 | 53 | 0 | 0.0 | 0.0 | 0.00 | 0.00 | 0.00 | 61 | 1013.1 |
| 20260508010548 | 53 | 0 | 0.0 | 0.0 | 0.00 | 0.00 | 0.00 | 60 | 1013.2 |
| 20260508010106 | 54 | 0 | 0.0 | 0.0 | 0.00 | 0.00 | 0.00 | 58 | 1013.1 |
| 20260508005549 | 54 | 0 | 0.0 | 0.0 | 0.00 | 0.00 | 0.00 | 57 | 1012.9 |
| 20260508005049 | 55 | 0 | 0.0 | 0.0 | 0.00 | 0.00 | 0.00 | 56 | 1013.0 |
| 20260508004554 | 55 | 0 | 0.0 | 0.0 | 0.00 | 0.00 | 0.00 | 54 | 1012.9 |
| 20260508004050 | 56 | 0 | 0.0 | 0.0 | 0.00 | 0.00 | 0.00 | 52 | 1012.8 |
| 20260508003547 | 56 | 0 | 0.0 | 1.0 | 0.00 | 0.00 | 0.00 | 50 | 1012.9 |
| 20260508003051 | 57 | 0 | 0.0 | 1.0 | 0.00 | 0.00 | 0.00 | 53 | 1012.8 |